Time,TemperatureF,DewpointF,PressureIn,WindDirection,WindDirectionDegrees,WindSpeedMPH,WindSpeedGustMPH,Humidity,HourlyPrecipIn,Conditions,Clouds,dailyrainin,SoftwareType,DateUTC
2013-06-20 00:02:00,63.0,56.0,30.06,SSW,196,0.0,-999.0,78,-99.99,,,-99.99,,2013-06-20 04:02:00,
2013-06-20 00:11:00,62.0,55.0,30.06,SSW,196,0.0,-999.0,79,-99.99,,,-99.99,,2013-06-20 04:11:00,
2013-06-20 00:23:00,62.0,56.0,30.06,SSW,196,0.0,-999.0,80,-99.99,,,-99.99,,2013-06-20 04:23:00,
2013-06-20 00:34:00,62.0,56.0,30.06,SSW,196,0.0,-999.0,80,-99.99,,,-99.99,,2013-06-20 04:34:00,
2013-06-20 00:43:00,61.0,55.0,30.07,SSW,196,0.0,-999.0,81,-99.99,,,-99.99,,2013-06-20 04:43:00,
2013-06-20 00:53:00,61.0,55.0,30.07,SSW,196,0.0,-999.0,81,-99.99,,,-99.99,,2013-06-20 04:53:00,
2013-06-20 01:02:00,61.0,55.0,30.07,SSW,196,0.0,-999.0,82,-99.99,,,-99.99,,2013-06-20 05:02:00,
2013-06-20 01:12:00,61.0,55.0,30.08,SSW,196,0.0,-999.0,82,-99.99,,,-99.99,,2013-06-20 05:12:00,
2013-06-20 01:22:00,61.0,55.0,30.07,SSW,196,0.0,-999.0,82,-99.99,,,-99.99,,2013-06-20 05:22:00,
2013-06-20 01:33:00,61.0,55.0,30.07,SSW,196,0.0,-999.0,82,-99.99,,,-99.99,,2013-06-20 05:33:00,
2013-06-20 01:44:00,60.0,54.0,30.08,SSW,196,0.0,-999.0,82,-99.99,,,-99.99,,2013-06-20 05:44:00,
2013-06-20 01:52:00,60.0,55.0,30.08,SSW,196,0.0,-999.0,84,-99.99,,,-99.99,,2013-06-20 05:52:00,
2013-06-20 02:02:00,60.0,55.0,30.08,SSW,196,0.0,-999.0,84,-99.99,,,-99.99,,2013-06-20 06:02:00,
2013-06-20 02:11:00,59.0,54.0,30.08,SSW,196,0.0,-999.0,84,-99.99,,,-99.99,,2013-06-20 06:11:00,
2013-06-20 02:22:00,59.0,54.0,30.08,SSW,196,0.0,-999.0,84,-99.99,,,-99.99,,2013-06-20 06:22:00,
2013-06-20 02:34:00,59.0,54.0,30.08,SSW,196,0.0,-999.0,85,-99.99,,,-99.99,,2013-06-20 06:34:00,
2013-06-20 02:43:00,58.0,54.0,30.08,SSW,196,0.0,-999.0,88,-99.99,,,-99.99,,2013-06-20 06:43:00,
2013-06-20 02:53:00,58.0,54.0,30.08,SSW,196,0.0,-999.0,88,-99.99,,,-99.99,,2013-06-20 06:53:00,
2013-06-20 03:01:00,57.0,54.0,30.08,SSW,196,0.0,-999.0,90,-99.99,,,-99.99,,2013-06-20 07:01:00,
2013-06-20 03:12:00,57.0,54.0,30.09,SSW,196,0.0,-999.0,90,-99.99,,,-99.99,,2013-06-20 07:12:00,
2013-06-20 03:22:00,57.0,54.0,30.09,SSW,196,0.0,-999.0,91,-99.99,,,-99.99,,2013-06-20 07:22:00,
2013-06-20 03:34:00,57.0,54.0,30.09,SSW,196,0.0,-999.0,91,-99.99,,,-99.99,,2013-06-20 07:34:00,
2013-06-20 03:44:00,56.0,53.0,30.09,SSW,196,0.0,-999.0,91,-99.99,,,-99.99,,2013-06-20 07:44:00,
2013-06-20 03:52:00,56.0,53.0,30.09,SSW,196,0.0,-999.0,91,-99.99,,,-99.99,,2013-06-20 07:52:00,
2013-06-20 04:02:00,56.0,54.0,30.10,SSW,196,0.0,-999.0,92,-99.99,,,-99.99,,2013-06-20 08:02:00,
2013-06-20 04:11:00,55.0,53.0,30.10,SSW,196,0.0,-999.0,93,-99.99,,,-99.99,,2013-06-20 08:11:00,
2013-06-20 04:22:00,55.0,53.0,30.10,SSW,196,0.0,-999.0,93,-99.99,,,-99.99,,2013-06-20 08:22:00,
2013-06-20 04:34:00,55.0,53.0,30.10,SSW,196,0.0,-999.0,93,-99.99,,,-99.99,,2013-06-20 08:34:00,
2013-06-20 04:43:00,55.0,53.0,30.10,SSW,196,0.0,-999.0,94,-99.99,,,-99.99,,2013-06-20 08:43:00,
2013-06-20 04:53:00,55.0,53.0,30.10,SSW,196,0.0,-999.0,94,-99.99,,,-99.99,,2013-06-20 08:53:00,
2013-06-20 05:02:00,55.0,53.0,30.10,SSW,196,0.0,-999.0,94,-99.99,,,-99.99,,2013-06-20 09:02:00,
2013-06-20 05:12:00,55.0,53.0,30.11,SSW,196,0.0,-999.0,94,-99.99,,,-99.99,,2013-06-20 09:12:00,
2013-06-20 05:22:00,55.0,53.0,30.11,SSW,196,0.0,-999.0,94,-99.99,,,-99.99,,2013-06-20 09:22:00,
2013-06-20 05:33:00,55.0,53.0,30.11,SSW,196,0.0,-999.0,94,-99.99,,,-99.99,,2013-06-20 09:33:00,
2013-06-20 05:42:00,55.0,53.0,30.11,SSW,196,0.0,-999.0,94,-99.99,,,-99.99,,2013-06-20 09:42:00,
2013-06-20 05:52:00,55.0,53.0,30.11,SSW,196,0.0,-999.0,94,-99.99,,,-99.99,,2013-06-20 09:52:00,
2013-06-20 06:02:00,55.0,54.0,30.12,SSW,196,0.0,-999.0,95,-99.99,,,-99.99,,2013-06-20 10:02:00,
2013-06-20 06:11:00,55.0,54.0,30.13,SSW,196,0.0,-999.0,95,-99.99,,,-99.99,,2013-06-20 10:11:00,
2013-06-20 06:22:00,55.0,54.0,30.14,SSW,196,0.0,-999.0,95,-99.99,,,-99.99,,2013-06-20 10:22:00,
2013-06-20 06:34:00,55.0,54.0,30.14,SSW,196,0.0,-999.0,95,-99.99,,,-99.99,,2013-06-20 10:34:00,
2013-06-20 06:43:00,55.0,54.0,30.14,SSW,196,0.0,-999.0,96,-99.99,,,-99.99,,2013-06-20 10:43:00,
2013-06-20 06:53:00,55.0,54.0,30.14,SSW,196,0.0,-999.0,96,-99.99,,,-99.99,,2013-06-20 10:53:00,
2013-06-20 07:02:00,56.0,55.0,30.14,SSW,196,0.0,-999.0,96,-99.99,,,-99.99,,2013-06-20 11:02:00,
2013-06-20 07:12:00,57.0,56.0,30.14,SSW,196,0.0,-999.0,96,-99.99,,,-99.99,,2013-06-20 11:12:00,
2013-06-20 07:22:00,57.0,56.0,30.14,SSW,196,0.0,-999.0,96,-99.99,,,-99.99,,2013-06-20 11:22:00,
2013-06-20 07:34:00,59.0,58.0,30.14,SSW,196,0.0,-999.0,95,-99.99,,,-99.99,,2013-06-20 11:34:00,
2013-06-20 07:43:00,60.0,58.0,30.15,SSW,196,0.0,-999.0,92,-99.99,,,-99.99,,2013-06-20 11:43:00,
2013-06-20 07:53:00,61.0,58.0,30.15,SSW,196,0.0,-999.0,89,-99.99,,,-99.99,,2013-06-20 11:53:00,
2013-06-20 08:02:00,61.0,58.0,30.15,SSW,196,0.0,-999.0,89,-99.99,,,-99.99,,2013-06-20 12:02:00,
2013-06-20 08:12:00,63.0,59.0,30.15,SSW,196,0.0,-999.0,86,-99.99,,,-99.99,,2013-06-20 12:12:00,
2013-06-20 08:22:00,63.0,59.0,30.15,SSW,196,0.0,-999.0,86,-99.99,,,-99.99,,2013-06-20 12:22:00,
2013-06-20 08:34:00,64.0,58.0,30.15,SSW,196,0.0,-999.0,81,-99.99,,,-99.99,,2013-06-20 12:34:00,
2013-06-20 08:43:00,66.0,60.0,30.15,SSW,207,1.0,-999.0,81,-99.99,,,-99.99,,2013-06-20 12:43:00,
2013-06-20 08:53:00,66.0,60.0,30.15,SSW,207,1.0,-999.0,81,-99.99,,,-99.99,,2013-06-20 12:53:00,
2013-06-20 09:02:00,67.0,60.0,30.15,SSW,205,2.0,-999.0,78,-99.99,,,-99.99,,2013-06-20 13:02:00,
2013-06-20 09:11:00,67.0,59.0,30.16,SW,232,2.0,-999.0,76,-99.99,,,-99.99,,2013-06-20 13:11:00,
2013-06-20 09:22:00,67.0,59.0,30.16,SW,232,2.0,-999.0,76,-99.99,,,-99.99,,2013-06-20 13:22:00,
2013-06-20 09:33:00,68.0,59.0,30.16,SW,230,2.0,-999.0,74,-99.99,,,-99.99,,2013-06-20 13:33:00,
2013-06-20 09:42:00,69.0,60.0,30.16,SW,216,2.0,-999.0,72,-99.99,,,-99.99,,2013-06-20 13:42:00,
2013-06-20 09:53:00,70.0,60.0,30.16,SSW,209,3.0,-999.0,70,-99.99,,,-99.99,,2013-06-20 13:53:00,
2013-06-20 10:02:00,70.0,60.0,30.16,SSW,209,3.0,-999.0,70,-99.99,,,-99.99,,2013-06-20 14:02:00,
2013-06-20 10:11:00,70.0,59.0,30.16,SW,234,5.0,-999.0,69,-99.99,,,-99.99,,2013-06-20 14:11:00,
2013-06-20 10:22:00,70.0,59.0,30.16,SW,234,5.0,-999.0,69,-99.99,,,-99.99,,2013-06-20 14:22:00,
2013-06-20 10:33:00,71.0,59.0,30.16,SW,216,5.0,-999.0,66,-99.99,,,-99.99,,2013-06-20 14:33:00,
2013-06-20 10:42:00,72.0,60.0,30.16,SSW,209,5.0,-999.0,65,-99.99,,,-99.99,,2013-06-20 14:42:00,
2013-06-20 10:53:00,72.0,60.0,30.16,SSW,209,5.0,-999.0,65,-99.99,,,-99.99,,2013-06-20 14:53:00,
2013-06-20 11:02:00,72.0,58.0,30.16,SE,136,4.0,-999.0,62,-99.99,,,-99.99,,2013-06-20 15:02:00,
2013-06-20 11:11:00,73.0,58.0,30.16,SW,214,5.0,-999.0,60,-99.99,,,-99.99,,2013-06-20 15:11:00,
2013-06-20 11:22:00,73.0,58.0,30.16,SW,214,5.0,-999.0,60,-99.99,,,-99.99,,2013-06-20 15:22:00,
2013-06-20 11:33:00,74.0,60.0,30.17,West,265,4.0,-999.0,62,-99.99,,,-99.99,,2013-06-20 15:33:00,
2013-06-20 11:43:00,74.0,58.0,30.16,SSW,207,4.0,-999.0,58,-99.99,,,-99.99,,2013-06-20 15:43:00,
2013-06-20 11:53:00,75.0,60.0,30.16,SSW,202,3.0,-999.0,60,-99.99,,,-99.99,,2013-06-20 15:53:00,
2013-06-20 12:02:00,75.0,60.0,30.16,SSW,202,3.0,-999.0,60,-99.99,,,-99.99,,2013-06-20 16:02:00,
2013-06-20 12:12:00,76.0,61.0,30.16,SSW,213,3.0,-999.0,60,-99.99,,,-99.99,,2013-06-20 16:12:00,
2013-06-20 12:22:00,76.0,62.0,30.16,SSW,211,3.0,-999.0,61,-99.99,,,-99.99,,2013-06-20 16:22:00,
2013-06-20 12:33:00,76.0,62.0,30.16,SSW,211,3.0,-999.0,61,-99.99,,,-99.99,,2013-06-20 16:33:00,
2013-06-20 12:43:00,76.0,60.0,30.16,SSW,213,4.0,-999.0,58,-99.99,,,-99.99,,2013-06-20 16:43:00,
2013-06-20 12:52:00,76.0,60.0,30.16,SSW,213,4.0,-999.0,58,-99.99,,,-99.99,,2013-06-20 16:52:00,
2013-06-20 13:02:00,77.0,61.0,30.16,West,276,4.0,-999.0,57,-99.99,,,-99.99,,2013-06-20 17:02:00,
2013-06-20 13:12:00,77.0,61.0,30.15,South,186,3.0,-999.0,58,-99.99,,,-99.99,,2013-06-20 17:12:00,
2013-06-20 13:22:00,77.0,60.0,30.15,SW,233,4.0,-999.0,56,-99.99,,,-99.99,,2013-06-20 17:22:00,
2013-06-20 13:32:00,77.0,60.0,30.15,SW,233,4.0,-999.0,56,-99.99,,,-99.99,,2013-06-20 17:32:00,
2013-06-20 13:43:00,77.0,60.0,30.15,ESE,121,3.0,-999.0,55,-99.99,,,-99.99,,2013-06-20 17:43:00,
2013-06-20 13:53:00,77.0,60.0,30.15,ESE,121,3.0,-999.0,55,-99.99,,,-99.99,,2013-06-20 17:53:00,
2013-06-20 14:01:00,77.0,60.0,30.15,ESE,121,3.0,-999.0,55,-99.99,,,-99.99,,2013-06-20 18:01:00,
2013-06-20 14:11:00,78.0,61.0,30.14,WSW,256,4.0,-999.0,55,-99.99,,,-99.99,,2013-06-20 18:11:00,
2013-06-20 14:22:00,77.0,59.0,30.14,SW,217,3.0,-999.0,53,-99.99,,,-99.99,,2013-06-20 18:22:00,
2013-06-20 14:33:00,77.0,59.0,30.14,SW,217,3.0,-999.0,53,-99.99,,,-99.99,,2013-06-20 18:33:00,
2013-06-20 14:43:00,78.0,58.0,30.14,SSW,213,4.0,-999.0,51,-99.99,,,-99.99,,2013-06-20 18:43:00,
2013-06-20 14:53:00,78.0,58.0,30.14,SSW,213,4.0,-999.0,51,-99.99,,,-99.99,,2013-06-20 18:53:00,
2013-06-20 15:01:00,78.0,60.0,30.13,SSW,205,3.0,-999.0,54,-99.99,,,-99.99,,2013-06-20 19:01:00,
2013-06-20 15:11:00,79.0,60.0,30.13,South,179,3.0,-999.0,52,-99.99,,,-99.99,,2013-06-20 19:11:00,
2013-06-20 15:22:00,79.0,59.0,30.13,SW,221,5.0,-999.0,51,-99.99,,,-99.99,,2013-06-20 19:22:00,
2013-06-20 15:34:00,79.0,59.0,30.13,SW,221,5.0,-999.0,51,-99.99,,,-99.99,,2013-06-20 19:34:00,
2013-06-20 15:43:00,79.0,60.0,30.13,SSW,202,4.0,-999.0,53,-99.99,,,-99.99,,2013-06-20 19:43:00,
2013-06-20 15:52:00,79.0,60.0,30.13,SSW,202,4.0,-999.0,53,-99.99,,,-99.99,,2013-06-20 19:52:00,
2013-06-20 16:02:00,78.0,61.0,30.13,SW,215,3.0,-999.0,55,-99.99,,,-99.99,,2013-06-20 20:02:00,
2013-06-20 16:11:00,78.0,61.0,30.13,SSE,168,3.0,-999.0,55,-99.99,,,-99.99,,2013-06-20 20:11:00,
2013-06-20 16:33:00,78.0,60.0,30.13,SSW,213,2.0,-999.0,54,-99.99,,,-99.99,,2013-06-20 20:33:00,
2013-06-20 16:42:00,78.0,59.0,30.13,SW,229,4.0,-999.0,52,-99.99,,,-99.99,,2013-06-20 20:42:00,
2013-06-20 17:01:00,79.0,59.0,30.12,SE,128,3.0,-999.0,50,-99.99,,,-99.99,,2013-06-20 21:01:00,